GFSGBSN_prec_precacc_225.txt.gz
Total_Precipitation_Accumulation
0.21 0.16 0.13 0.12 0.10 0.08 0.08 0.08 0.08 0.06 0.06 0.06 0.06 0.05 0.05 0.05 0.04 0.03 0.02 0.01 0.01 0.02 0.02 0.02 0.02 0.02 0.01 0.00 0.00 0.00 0.00 0.00 0.00 0.00 0.00 0.00 0.00 0.00 0.00 0.00 0.00 0.00 0.00 0.00 0.00 0.02 0.02
0.59 0.51 0.47 0.43 0.38 0.35 0.32 0.27 0.21 0.13 0.09 0.07 0.07 0.07 0.07 0.07 0.05 0.04 0.03 0.01 0.02 0.01 0.02 0.02 0.02 0.04 0.00 0.00 0.00 0.00 0.00 0.00 0.00 0.00 0.00 0.00 0.00 0.00 0.00 0.00 0.00 0.00 0.00 0.00 0.02 0.01 0.02
0.49 0.51 0.49 0.45 0.42 0.35 0.27 0.21 0.17 0.15 0.11 0.08 0.09 0.06 0.05 0.05 0.04 0.03 0.03 0.01 0.02 0.02 0.02 0.02 0.03 0.03 0.00 0.00 0.00 0.00 0.00 0.00 0.00 0.00 0.00 0.00 0.00 0.00 0.00 0.00 0.00 0.00 0.01 0.01 0.04 0.02 0.01
0.44 0.40 0.38 0.35 0.31 0.31 0.27 0.22 0.19 0.16 0.12 0.09 0.07 0.07 0.06 0.05 0.04 0.03 0.02 0.01 0.01 0.01 0.02 0.02 0.03 0.02 0.00 0.00 0.00 0.00 0.00 0.00 0.00 0.00 0.00 0.00 0.00 0.00 0.00 0.00 0.00 0.00 0.00 0.02 0.16 0.03 0.01
0.47 0.44 0.39 0.32 0.29 0.28 0.26 0.22 0.17 0.12 0.10 0.09 0.07 0.05 0.04 0.03 0.03 0.04 0.03 0.02 0.01 0.01 0.02 0.02 0.03 0.02 0.00 0.00 0.00 0.00 0.00 0.00 0.00 0.00 0.00 0.00 0.00 0.00 0.00 0.00 0.00 0.00 0.00 0.00 0.01 0.01 0.01
0.44 0.40 0.37 0.32 0.31 0.27 0.24 0.20 0.16 0.11 0.11 0.10 0.07 0.05 0.05 0.06 0.06 0.05 0.03 0.01 0.01 0.01 0.01 0.00 0.02 0.01 0.00 0.00 0.00 0.00 0.00 0.01 0.03 0.00 0.00 0.00 0.00 0.00 0.00 0.00 0.00 0.00 0.00 0.00 0.02 0.01 0.00
0.57 0.52 0.46 0.39 0.32 0.33 0.35 0.33 0.27 0.22 0.17 0.12 0.08 0.05 0.03 0.02 0.04 0.05 0.01 0.01 0.00 0.00 0.00 0.00 0.01 0.00 0.00 0.00 0.00 0.00 0.00 0.01 0.01 0.00 0.01 0.02 0.00 0.01 0.00 0.00 0.00 0.00 0.00 0.00 0.00 0.01 0.00
0.55 0.58 0.54 0.43 0.36 0.31 0.31 0.31 0.29 0.27 0.21 0.17 0.13 0.09 0.05 0.05 0.07 0.06 0.01 0.00 0.01 0.05 0.07 0.00 0.00 0.00 0.00 0.00 0.00 0.00 0.00 0.00 0.00 0.01 0.03 0.04 0.03 0.01 0.01 0.00 0.00 0.00 0.01 0.00 0.00 0.00 0.00
0.77 0.68 0.65 0.67 0.54 0.39 0.32 0.30 0.24 0.20 0.20 0.18 0.12 0.09 0.08 0.09 0.10 0.04 0.00 0.00 0.00 0.01 0.06 0.00 0.00 0.00 0.00 0.00 0.00 0.00 0.00 0.00 0.01 0.03 0.03 0.05 0.02 0.00 0.00 0.00 0.01 0.00 0.00 0.00 0.00 0.00 0.01
1.01 0.78 0.69 0.65 0.69 0.64 0.49 0.36 0.28 0.21 0.17 0.14 0.11 0.11 0.14 0.14 0.06 0.00 0.00 0.00 0.00 0.03 0.20 0.04 0.00 0.00 0.00 0.01 0.01 0.00 0.00 0.05 0.07 0.06 0.05 0.06 0.00 0.01 0.04 0.04 0.01 0.00 0.00 0.01 0.01 0.03 0.08
1.26 1.08 0.91 0.76 0.71 0.68 0.61 0.48 0.32 0.22 0.21 0.20 0.15 0.13 0.13 0.12 0.03 0.01 0.01 0.00 0.01 0.16 0.48 0.05 0.00 0.01 0.00 0.02 0.04 0.02 0.00 0.01 0.04 0.04 0.10 0.12 0.01 0.07 0.08 0.03 0.02 0.01 0.01 0.05 0.05 0.06 0.05
1.49 1.34 1.21 1.01 0.79 0.62 0.57 0.55 0.47 0.32 0.24 0.25 0.24 0.23 0.24 0.12 0.08 0.02 0.01 0.02 0.22 0.59 0.47 0.04 0.01 0.01 0.01 0.00 0.00 0.00 0.00 0.02 0.02 0.03 0.03 0.02 0.02 0.05 0.04 0.01 0.04 0.08 0.05 0.11 0.10 0.13 0.15
1.76 1.57 1.42 1.24 1.07 0.82 0.66 0.56 0.53 0.43 0.33 0.32 0.28 0.24 0.27 0.11 0.07 0.02 0.03 0.25 0.63 0.63 0.07 0.03 0.03 0.00 0.01 0.03 0.02 0.02 0.05 0.03 0.04 0.07 0.10 0.08 0.09 0.01 0.01 0.01 0.04 0.11 0.25 0.47 0.52 0.33 0.12
2.42 1.95 1.67 1.42 1.22 1.09 0.88 0.78 0.64 0.63 0.54 0.50 0.48 0.48 0.30 0.12 0.07 0.10 0.22 0.66 0.73 0.11 0.02 0.01 0.00 0.01 0.10 0.20 0.16 0.08 0.08 0.02 0.01 0.02 0.08 0.18 0.21 0.10 0.00 0.01 0.04 0.09 0.27 0.39 0.55 0.26 0.12
3.23 2.53 1.93 1.56 1.38 1.19 1.22 1.01 0.90 0.77 0.71 0.76 1.06 0.83 0.54 0.19 0.16 0.32 0.96 1.30 0.24 0.04 0.11 0.07 0.04 0.11 0.28 0.11 0.35 0.26 0.05 0.02 0.06 0.09 0.27 0.29 0.22 0.07 0.01 0.04 0.12 0.17 0.16 0.12 0.67 0.42 0.42
4.07 3.97 2.99 2.41 1.84 1.57 1.42 1.43 1.30 1.13 1.09 1.35 1.42 1.33 0.76 0.31 0.57 1.33 2.09 1.03 0.07 0.05 0.10 0.22 0.44 0.24 0.36 0.12 0.39 0.18 0.14 0.09 0.06 0.04 0.11 0.31 0.62 0.20 0.06 0.07 0.07 0.14 0.25 0.46 0.91 1.00 0.80
4.08 3.94 4.20 3.48 2.83 2.13 1.94 1.87 1.91 1.85 2.00 2.57 3.02 3.17 1.32 0.51 1.79 3.22 2.19 0.35 0.02 0.03 0.21 0.54 0.48 0.46 0.54 0.43 0.49 0.22 0.31 0.21 0.11 0.05 0.09 0.37 0.87 0.50 0.16 0.15 0.16 0.24 0.39 0.43 0.62 0.65 1.33
3.67 3.89 3.69 3.63 3.44 2.96 2.57 2.36 2.53 3.08 3.95 4.80 4.77 3.91 2.04 1.27 2.85 2.61 0.93 0.14 0.14 0.17 0.27 0.48 0.48 0.60 0.85 0.61 0.69 0.72 0.45 0.42 0.14 0.03 0.06 0.14 0.96 0.77 0.26 0.12 0.18 0.27 0.24 0.40 1.46 1.09 1.22
3.11 3.01 3.41 3.69 3.51 3.55 3.19 2.86 2.85 3.30 3.89 4.71 5.64 3.86 3.58 2.48 2.15 1.29 0.57 0.34 0.31 0.28 0.24 0.43 0.48 0.76 0.85 1.01 1.28 1.28 0.63 0.20 0.06 0.04 0.17 0.30 0.91 0.62 0.53 0.62 0.32 0.23 0.28 0.48 0.80 1.41 1.97
3.44 3.30 3.03 3.28 3.93 4.10 3.93 4.13 4.22 4.35 4.82 5.29 6.17 5.17 5.83 4.99 1.85 0.62 0.67 0.68 0.45 0.23 0.28 0.36 0.59 0.82 0.88 1.04 1.06 1.29 0.64 0.14 0.04 0.03 0.12 0.47 0.63 0.62 0.90 0.94 0.84 0.56 0.39 0.49 1.13 2.12 1.68
3.03 3.17 3.29 3.32 3.55 4.24 4.68 5.12 5.27 5.19 5.63 7.73 7.85 4.27 2.56 3.21 1.86 0.89 0.87 1.08 0.59 0.46 0.54 0.68 1.08 0.62 0.72 1.49 1.02 0.75 0.61 0.32 0.16 0.16 0.17 0.44 0.86 0.83 0.61 0.70 0.61 1.10 1.13 1.16 1.05 0.96 1.57
2.86 2.84 3.05 3.20 3.37 3.60 3.98 4.91 5.40 5.14 5.80 9.96 8.04 2.95 1.64 1.19 0.94 1.53 1.74 1.22 0.56 0.56 0.99 1.05 0.59 0.30 0.52 0.80 0.73 0.72 0.74 0.76 0.66 0.27 0.27 0.41 0.71 0.89 1.51 0.90 0.43 0.94 1.09 0.92 0.63 0.73 0.80
2.85 2.71 2.79 3.02 3.08 3.06 3.22 3.81 5.04 6.27 7.52 10.48 6.03 2.03 2.09 2.17 1.39 1.76 1.70 0.84 0.72 0.81 1.15 0.68 0.46 0.76 0.64 0.36 0.51 0.69 0.55 0.43 0.48 0.44 0.49 0.67 0.79 0.92 1.09 0.55 0.49 0.94 0.87 0.51 0.32 0.27 0.36
2.40 2.34 2.30 2.43 2.68 2.94 3.13 3.38 3.93 5.60 7.97 6.71 3.81 2.10 3.13 2.79 1.39 0.84 0.62 0.61 0.75 0.71 1.03 0.60 0.44 0.75 0.49 0.31 0.55 0.62 0.38 0.22 0.30 0.26 0.37 0.61 0.68 1.23 1.12 0.68 1.38 1.01 0.40 0.32 0.33 0.33 0.28
2.29 2.24 2.18 2.17 2.18 2.51 2.73 2.73 3.04 3.93 5.56 5.78 3.62 2.63 2.80 2.22 0.97 0.64 0.54 0.61 0.76 0.93 0.96 0.86 0.55 0.53 0.70 0.92 1.21 0.98 0.54 0.38 0.21 0.34 0.42 0.43 0.81 1.52 1.19 0.80 0.61 0.27 0.16 0.25 0.34 0.33 0.36
1.96 1.87 1.85 2.10 2.05 2.09 2.42 2.46 2.32 2.58 3.81 5.74 4.19 2.73 2.97 2.70 1.32 0.45 0.62 0.69 0.90 1.06 1.06 0.77 0.57 0.64 0.95 1.54 1.58 1.24 0.64 0.40 0.32 0.28 0.46 0.69 0.93 1.71 1.35 1.29 0.68 0.22 0.15 0.08 0.15 0.47 0.43
1.78 1.73 1.82 1.84 2.04 2.05 2.08 2.16 2.26 2.19 3.06 4.81 4.56 3.07 4.27 3.99 1.56 0.70 0.78 0.86 0.84 1.05 1.33 0.85 0.82 0.94 1.11 1.55 1.55 0.73 0.49 0.41 0.55 0.40 0.33 0.62 1.25 1.85 1.51 1.86 0.68 0.16 0.19 0.24 0.81 1.05 0.72
1.42 1.50 1.69 1.70 1.82 1.84 1.84 1.80 2.03 2.44 3.24 4.68 4.09 2.85 3.82 3.78 1.78 0.91 0.78 0.82 0.77 1.03 1.47 1.25 1.60 1.43 1.71 1.76 1.20 0.84 0.56 0.38 0.41 0.29 0.36 0.48 1.03 1.09 1.28 1.70 1.01 0.36 0.54 0.97 1.05 0.79 0.56
1.42 1.36 1.40 1.54 1.65 1.65 1.66 1.81 1.94 2.52 3.50 4.65 4.31 2.81 3.16 4.08 2.70 1.20 0.71 0.66 0.57 0.65 1.22 1.58 1.33 1.09 1.20 1.38 1.24 1.04 0.80 0.58 0.49 0.79 0.45 0.73 0.67 0.92 0.89 0.76 0.69 0.62 0.89 0.76 0.74 0.80 0.46

GFSGBSN_prec_precacc_228.txt.gz
Total_Precipitation_Accumulation
0.21 0.16 0.13 0.12 0.10 0.08 0.08 0.08 0.08 0.06 0.06 0.06 0.06 0.05 0.05 0.05 0.04 0.03 0.02 0.01 0.01 0.02 0.02 0.02 0.02 0.02 0.01 0.00 0.00 0.00 0.00 0.00 0.00 0.00 0.00 0.00 0.00 0.00 0.00 0.00 0.00 0.00 0.00 0.00 0.00 0.02 0.02
0.59 0.51 0.47 0.43 0.38 0.35 0.32 0.27 0.21 0.13 0.09 0.07 0.07 0.07 0.07 0.07 0.05 0.04 0.03 0.01 0.02 0.01 0.02 0.02 0.02 0.04 0.00 0.00 0.00 0.00 0.00 0.00 0.00 0.00 0.00 0.00 0.00 0.00 0.00 0.00 0.00 0.00 0.00 0.00 0.02 0.01 0.02
0.50 0.52 0.49 0.45 0.42 0.35 0.27 0.21 0.17 0.15 0.11 0.08 0.09 0.06 0.05 0.05 0.04 0.03 0.03 0.01 0.02 0.02 0.02 0.02 0.03 0.03 0.00 0.00 0.00 0.00 0.00 0.00 0.00 0.00 0.00 0.00 0.00 0.00 0.00 0.00 0.00 0.00 0.01 0.01 0.04 0.02 0.01
0.50 0.42 0.38 0.35 0.31 0.31 0.27 0.22 0.19 0.16 0.12 0.09 0.07 0.07 0.06 0.05 0.04 0.03 0.02 0.01 0.01 0.01 0.02 0.02 0.03 0.02 0.00 0.00 0.00 0.00 0.00 0.00 0.00 0.00 0.00 0.00 0.00 0.00 0.00 0.00 0.00 0.00 0.00 0.02 0.16 0.03 0.01
0.51 0.48 0.42 0.33 0.30 0.28 0.26 0.22 0.17 0.12 0.10 0.09 0.07 0.05 0.04 0.03 0.03 0.04 0.03 0.02 0.01 0.01 0.02 0.02 0.03 0.02 0.00 0.00 0.00 0.00 0.00 0.00 0.00 0.00 0.00 0.00 0.00 0.00 0.00 0.00 0.00 0.00 0.00 0.00 0.01 0.01 0.01
0.45 0.42 0.39 0.34 0.32 0.29 0.24 0.20 0.16 0.11 0.11 0.10 0.07 0.05 0.05 0.06 0.06 0.05 0.03 0.01 0.01 0.01 0.01 0.00 0.02 0.01 0.00 0.00 0.00 0.00 0.00 0.01 0.03 0.00 0.00 0.00 0.00 0.00 0.00 0.00 0.00 0.00 0.00 0.00 0.02 0.01 0.00
0.57 0.52 0.46 0.40 0.34 0.34 0.36 0.34 0.27 0.22 0.17 0.12 0.08 0.05 0.03 0.02 0.04 0.05 0.01 0.01 0.00 0.00 0.00 0.00 0.01 0.00 0.00 0.00 0.00 0.00 0.00 0.01 0.01 0.00 0.01 0.02 0.00 0.01 0.00 0.00 0.00 0.00 0.00 0.00 0.00 0.01 0.00
0.55 0.58 0.54 0.43 0.36 0.31 0.31 0.32 0.30 0.27 0.21 0.17 0.13 0.09 0.05 0.05 0.07 0.06 0.01 0.00 0.01 0.05 0.07 0.00 0.00 0.00 0.00 0.00 0.00 0.00 0.00 0.00 0.00 0.01 0.03 0.04 0.03 0.01 0.01 0.00 0.00 0.00 0.01 0.00 0.00 0.00 0.00
0.77 0.68 0.65 0.67 0.54 0.39 0.33 0.31 0.25 0.20 0.20 0.18 0.12 0.09 0.08 0.09 0.10 0.04 0.00 0.00 0.00 0.01 0.06 0.00 0.00 0.00 0.00 0.00 0.00 0.00 0.00 0.00 0.01 0.03 0.03 0.05 0.02 0.00 0.00 0.00 0.01 0.00 0.00 0.00 0.00 0.00 0.01
1.01 0.78 0.69 0.65 0.69 0.64 0.50 0.38 0.30 0.22 0.17 0.14 0.11 0.11 0.14 0.14 0.06 0.00 0.00 0.00 0.00 0.03 0.20 0.04 0.00 0.00 0.00 0.01 0.01 0.00 0.00 0.05 0.07 0.06 0.05 0.06 0.00 0.01 0.04 0.04 0.01 0.00 0.00 0.01 0.01 0.03 0.08
1.26 1.08 0.91 0.76 0.71 0.68 0.61 0.49 0.35 0.23 0.22 0.20 0.15 0.13 0.13 0.12 0.03 0.01 0.01 0.00 0.01 0.16 0.48 0.05 0.00 0.01 0.00 0.02 0.04 0.02 0.00 0.01 0.04 0.04 0.10 0.12 0.01 0.07 0.08 0.03 0.02 0.01 0.01 0.05 0.05 0.06 0.05
1.49 1.34 1.21 1.01 0.79 0.62 0.57 0.55 0.48 0.34 0.26 0.26 0.24 0.23 0.24 0.12 0.08 0.02 0.01 0.02 0.22 0.59 0.47 0.04 0.01 0.01 0.01 0.00 0.00 0.00 0.00 0.02 0.02 0.03 0.03 0.02 0.02 0.05 0.04 0.01 0.04 0.08 0.05 0.11 0.10 0.13 0.15
1.76 1.57 1.42 1.24 1.07 0.82 0.66 0.56 0.53 0.46 0.39 0.38 0.29 0.24 0.27 0.11 0.07 0.02 0.03 0.25 0.64 0.63 0.07 0.03 0.03 0.00 0.01 0.03 0.02 0.02 0.05 0.03 0.04 0.07 0.10 0.08 0.09 0.01 0.01 0.01 0.04 0.11 0.25 0.47 0.52 0.33 0.12
2.42 1.95 1.67 1.42 1.22 1.09 0.88 0.78 0.64 0.65 0.62 0.62 0.56 0.49 0.30 0.12 0.07 0.11 0.23 0.70 0.74 0.11 0.02 0.01 0.00 0.01 0.10 0.20 0.16 0.08 0.08 0.02 0.01 0.02 0.08 0.18 0.21 0.10 0.00 0.01 0.04 0.09 0.27 0.39 0.56 0.26 0.12
3.23 2.53 1.93 1.56 1.38 1.19 1.22 1.01 0.90 0.77 0.74 0.89 1.23 0.90 0.56 0.19 0.18 0.35 1.02 1.33 0.24 0.04 0.11 0.07 0.04 0.11 0.28 0.11 0.35 0.26 0.05 0.02 0.06 0.09 0.27 0.29 0.22 0.07 0.01 0.04 0.12 0.17 0.16 0.12 0.67 0.42 0.42
4.07 3.97 2.99 2.41 1.84 1.57 1.42 1.43 1.30 1.13 1.11 1.48 1.57 1.40 0.79 0.32 0.62 1.43 2.19 1.04 0.07 0.05 0.10 0.22 0.44 0.24 0.36 0.12 0.39 0.18 0.14 0.09 0.06 0.04 0.11 0.31 0.62 0.20 0.06 0.07 0.07 0.14 0.25 0.46 0.92 1.01 0.80
4.08 3.94 4.20 3.48 2.83 2.13 1.94 1.87 1.91 1.85 2.02 2.76 3.26 3.26 1.35 0.55 1.91 3.42 2.33 0.36 0.02 0.03 0.21 0.54 0.48 0.46 0.54 0.43 0.49 0.22 0.31 0.21 0.11 0.05 0.09 0.37 0.87 0.50 0.16 0.15 0.16 0.24 0.39 0.43 0.62 0.65 1.33
3.67 3.89 3.69 3.63 3.44 2.96 2.57 2.36 2.53 3.08 3.97 5.01 5.11 4.03 2.12 1.34 3.02 2.79 1.01 0.14 0.14 0.17 0.27 0.48 0.48 0.60 0.85 0.61 0.69 0.72 0.45 0.42 0.14 0.03 0.06 0.14 0.96 0.77 0.26 0.12 0.18 0.27 0.24 0.40 1.47 1.09 1.23
3.11 3.01 3.41 3.69 3.51 3.55 3.19 2.86 2.85 3.30 3.91 4.85 5.97 4.00 3.73 2.56 2.32 1.42 0.58 0.34 0.31 0.28 0.24 0.43 0.48 0.76 0.85 1.01 1.28 1.28 0.63 0.20 0.06 0.04 0.17 0.30 0.91 0.63 0.54 0.63 0.33 0.24 0.28 0.48 0.80 1.42 1.99
3.44 3.30 3.03 3.28 3.93 4.10 3.93 4.13 4.22 4.36 4.83 5.44 6.47 5.40 6.10 5.17 1.90 0.63 0.68 0.69 0.45 0.23 0.28 0.36 0.59 0.82 0.88 1.04 1.06 1.29 0.64 0.14 0.04 0.03 0.12 0.47 0.63 0.62 0.92 0.95 0.87 0.62 0.41 0.50 1.14 2.17 1.70
3.04 3.18 3.29 3.32 3.55 4.24 4.68 5.12 5.27 5.20 5.66 7.99 8.35 4.57 2.72 3.35 1.88 0.90 0.88 1.09 0.60 0.46 0.54 0.68 1.08 0.63 0.72 1.49 1.02 0.75 0.61 0.32 0.17 0.16 0.17 0.44 0.87 0.84 0.61 0.70 0.61 1.10 1.13 1.17 1.06 0.97 1.59
2.86 2.84 3.05 3.21 3.37 3.60 3.98 4.91 5.40 5.15 5.86 10.40 8.58 3.32 1.75 1.22 0.95 1.54 1.75 1.22 0.56 0.56 0.99 1.05 0.59 0.30 0.52 0.80 0.73 0.72 0.74 0.77 0.68 0.27 0.27 0.41 0.72 0.90 1.52 0.90 0.43 0.94 1.10 0.92 0.63 0.73 0.80
2.86 2.72 2.79 3.02 3.08 3.06 3.22 3.81 5.04 6.28 7.63 10.81 6.56 2.37 2.19 2.21 1.40 1.77 1.70 0.84 0.73 0.81 1.15 0.68 0.46 0.76 0.64 0.36 0.51 0.69 0.55 0.43 0.48 0.44 0.49 0.67 0.80 0.95 1.12 0.56 0.49 0.94 0.87 0.51 0.32 0.27 0.36
2.41 2.34 2.30 2.44 2.69 2.95 3.14 3.38 3.93 5.60 8.03 6.96 4.07 2.39 3.52 2.97 1.41 0.85 0.62 0.62 0.76 0.71 1.04 0.61 0.44 0.75 0.49 0.31 0.55 0.62 0.39 0.22 0.30 0.26 0.37 0.61 0.70 1.32 1.20 0.73 1.42 1.01 0.40 0.32 0.33 0.33 0.28
2.30 2.24 2.19 2.19 2.20 2.54 2.74 2.74 3.04 3.94 5.59 6.05 3.85 2.82 3.12 2.51 1.06 0.64 0.54 0.62 0.77 0.93 0.97 0.87 0.56 0.54 0.70 0.93 1.21 0.99 0.55 0.39 0.21 0.34 0.42 0.43 0.84 1.65 1.32 0.86 0.62 0.27 0.16 0.25 0.34 0.33 0.36
2.00 1.89 1.87 2.12 2.08 2.12 2.44 2.46 2.32 2.59 3.82 5.86 4.51 3.03 3.22 2.93 1.41 0.46 0.62 0.70 0.91 1.07 1.07 0.79 0.58 0.64 0.95 1.55 1.60 1.29 0.68 0.42 0.36 0.29 0.47 0.71 0.96 1.82 1.48 1.37 0.69 0.22 0.15 0.08 0.15 0.47 0.43
1.82 1.79 1.86 1.87 2.07 2.08 2.11 2.17 2.26 2.19 3.07 4.85 4.76 3.43 4.63 4.33 1.72 0.72 0.79 0.87 0.84 1.06 1.34 0.86 0.82 0.94 1.11 1.58 1.61 0.80 0.54 0.43 0.59 0.42 0.33 0.63 1.28 1.93 1.60 1.98 0.70 0.16 0.19 0.24 0.81 1.05 0.72
1.46 1.55 1.75 1.75 1.86 1.88 1.87 1.82 2.03 2.44 3.25 4.73 4.22 3.24 4.26 4.17 2.02 0.95 0.78 0.83 0.78 1.04 1.48 1.25 1.60 1.46 1.74 1.83 1.31 0.94 0.63 0.42 0.41 0.29 0.36 0.48 1.04 1.12 1.32 1.79 1.04 0.36 0.54 0.97 1.05 0.79 0.56
1.48 1.41 1.46 1.60 1.70 1.69 1.70 1.82 1.94 2.52 3.51 4.76 4.51 3.08 3.74 4.51 2.98 1.29 0.72 0.67 0.58 0.67 1.24 1.61 1.36 1.13 1.25 1.50 1.37 1.14 0.89 0.62 0.49 0.81 0.45 0.73 0.68 0.93 0.90 0.77 0.69 0.62 0.89 0.76 0.74 0.80 0.46

GFSGBSN_prec_precacc_231.txt.gz
Total_Precipitation_Accumulation
0.22 0.16 0.13 0.12 0.10 0.08 0.08 0.08 0.08 0.06 0.06 0.06 0.06 0.05 0.05 0.05 0.04 0.03 0.02 0.01 0.01 0.02 0.02 0.02 0.02 0.02 0.01 0.00 0.00 0.00 0.00 0.00 0.00 0.00 0.00 0.00 0.00 0.00 0.00 0.00 0.00 0.00 0.00 0.00 0.00 0.02 0.02
0.61 0.52 0.47 0.43 0.38 0.35 0.32 0.27 0.21 0.13 0.09 0.07 0.07 0.07 0.07 0.07 0.05 0.04 0.03 0.01 0.02 0.01 0.02 0.02 0.02 0.04 0.00 0.00 0.00 0.00 0.00 0.00 0.00 0.00 0.00 0.00 0.00 0.00 0.00 0.00 0.00 0.00 0.00 0.00 0.02 0.01 0.02
0.53 0.55 0.50 0.45 0.42 0.35 0.27 0.21 0.17 0.15 0.11 0.08 0.09 0.06 0.05 0.05 0.04 0.03 0.03 0.01 0.02 0.02 0.02 0.02 0.03 0.03 0.00 0.00 0.00 0.00 0.00 0.00 0.00 0.00 0.00 0.00 0.00 0.00 0.00 0.00 0.00 0.00 0.01 0.01 0.04 0.02 0.01
0.57 0.47 0.41 0.37 0.31 0.31 0.27 0.22 0.19 0.16 0.12 0.09 0.07 0.07 0.06 0.05 0.04 0.03 0.02 0.01 0.01 0.01 0.02 0.02 0.03 0.02 0.00 0.00 0.00 0.00 0.00 0.00 0.00 0.00 0.00 0.00 0.00 0.00 0.00 0.00 0.00 0.00 0.00 0.02 0.16 0.03 0.01
0.59 0.61 0.50 0.37 0.33 0.29 0.26 0.22 0.17 0.12 0.10 0.09 0.07 0.05 0.04 0.03 0.03 0.04 0.03 0.02 0.01 0.01 0.02 0.02 0.03 0.02 0.00 0.00 0.00 0.00 0.00 0.00 0.00 0.00 0.00 0.00 0.00 0.00 0.00 0.00 0.00 0.00 0.00 0.00 0.01 0.01 0.01
0.45 0.44 0.44 0.40 0.38 0.33 0.27 0.21 0.16 0.11 0.11 0.10 0.07 0.05 0.05 0.06 0.06 0.05 0.03 0.01 0.01 0.01 0.01 0.00 0.02 0.01 0.00 0.00 0.00 0.00 0.00 0.01 0.03 0.00 0.00 0.00 0.00 0.00 0.00 0.00 0.00 0.00 0.00 0.00 0.02 0.01 0.00
0.57 0.52 0.46 0.40 0.34 0.35 0.38 0.36 0.28 0.23 0.17 0.12 0.08 0.05 0.03 0.02 0.04 0.05 0.01 0.01 0.00 0.00 0.00 0.00 0.01 0.00 0.00 0.00 0.00 0.00 0.00 0.01 0.01 0.00 0.01 0.02 0.00 0.01 0.00 0.00 0.00 0.00 0.00 0.00 0.00 0.01 0.00
0.55 0.58 0.54 0.43 0.36 0.31 0.31 0.32 0.31 0.28 0.21 0.17 0.13 0.09 0.05 0.05 0.07 0.06 0.01 0.00 0.01 0.05 0.07 0.00 0.00 0.00 0.00 0.00 0.00 0.00 0.00 0.00 0.00 0.01 0.03 0.04 0.03 0.01 0.01 0.00 0.00 0.00 0.01 0.00 0.00 0.00 0.00
0.77 0.68 0.65 0.67 0.54 0.39 0.33 0.31 0.25 0.22 0.22 0.19 0.12 0.09 0.08 0.09 0.10 0.04 0.00 0.00 0.00 0.01 0.06 0.00 0.00 0.00 0.00 0.00 0.00 0.00 0.00 0.00 0.01 0.03 0.03 0.05 0.02 0.00 0.00 0.00 0.01 0.00 0.00 0.00 0.00 0.00 0.01
1.01 0.78 0.69 0.65 0.69 0.64 0.50 0.38 0.30 0.22 0.18 0.15 0.12 0.12 0.14 0.14 0.06 0.00 0.00 0.00 0.00 0.03 0.20 0.04 0.00 0.00 0.00 0.01 0.01 0.00 0.00 0.05 0.07 0.06 0.05 0.06 0.00 0.01 0.04 0.04 0.01 0.00 0.00 0.01 0.01 0.03 0.08
1.26 1.08 0.91 0.76 0.71 0.68 0.61 0.49 0.35 0.23 0.22 0.21 0.15 0.13 0.13 0.12 0.03 0.01 0.01 0.00 0.01 0.16 0.48 0.05 0.00 0.01 0.00 0.02 0.04 0.02 0.00 0.01 0.04 0.04 0.10 0.12 0.01 0.07 0.08 0.03 0.02 0.01 0.01 0.05 0.05 0.06 0.05
1.50 1.34 1.21 1.01 0.79 0.62 0.57 0.55 0.48 0.34 0.27 0.29 0.28 0.23 0.24 0.12 0.08 0.02 0.01 0.02 0.22 0.59 0.47 0.04 0.01 0.01 0.01 0.00 0.00 0.00 0.00 0.02 0.02 0.03 0.03 0.02 0.02 0.05 0.04 0.01 0.04 0.08 0.05 0.11 0.10 0.13 0.15
1.76 1.57 1.42 1.24 1.07 0.82 0.66 0.56 0.53 0.46 0.39 0.40 0.36 0.27 0.27 0.11 0.07 0.02 0.03 0.27 0.65 0.64 0.07 0.03 0.03 0.00 0.01 0.03 0.02 0.02 0.05 0.03 0.04 0.07 0.10 0.08 0.09 0.01 0.01 0.01 0.04 0.11 0.25 0.47 0.52 0.33 0.12
2.42 1.95 1.68 1.42 1.22 1.09 0.88 0.78 0.64 0.65 0.62 0.64 0.64 0.58 0.30 0.12 0.07 0.12 0.24 0.75 0.75 0.11 0.02 0.01 0.00 0.01 0.10 0.20 0.16 0.08 0.08 0.02 0.01 0.02 0.08 0.18 0.21 0.10 0.00 0.01 0.04 0.09 0.27 0.39 0.56 0.26 0.12
3.23 2.53 1.93 1.56 1.38 1.19 1.22 1.01 0.90 0.77 0.75 0.94 1.38 1.00 0.60 0.19 0.19 0.39 1.04 1.35 0.24 0.04 0.11 0.07 0.04 0.11 0.28 0.11 0.35 0.26 0.05 0.02 0.06 0.09 0.27 0.29 0.22 0.07 0.01 0.04 0.12 0.17 0.16 0.12 0.67 0.42 0.42
4.07 3.97 2.99 2.41 1.84 1.57 1.42 1.43 1.30 1.13 1.11 1.50 1.75 1.54 0.81 0.32 0.64 1.54 2.28 1.06 0.07 0.05 0.10 0.22 0.44 0.24 0.36 0.12 0.39 0.18 0.14 0.09 0.06 0.04 0.11 0.31 0.62 0.20 0.06 0.07 0.07 0.14 0.25 0.46 0.92 1.03 0.80
4.08 3.94 4.20 3.48 2.83 2.13 1.94 1.87 1.91 1.85 2.02 2.78 3.34 3.43 1.37 0.57 1.98 3.59 2.58 0.40 0.02 0.03 0.21 0.54 0.48 0.46 0.54 0.43 0.49 0.23 0.31 0.22 0.11 0.05 0.09 0.37 0.87 0.50 0.16 0.15 0.16 0.24 0.39 0.43 0.63 0.67 1.35
3.67 3.89 3.69 3.63 3.44 2.96 2.57 2.36 2.53 3.08 3.97 5.03 5.25 4.12 2.16 1.40 3.09 2.93 1.09 0.14 0.14 0.17 0.27 0.48 0.48 0.60 0.85 0.61 0.69 0.76 0.46 0.43 0.15 0.03 0.06 0.14 0.96 0.77 0.26 0.12 0.18 0.27 0.24 0.40 1.52 1.14 1.24
3.12 3.01 3.41 3.69 3.51 3.55 3.19 2.86 2.85 3.30 3.91 4.86 6.06 4.14 3.87 2.61 2.35 1.44 0.59 0.34 0.31 0.28 0.24 0.43 0.48 0.76 0.85 1.01 1.30 1.29 0.65 0.23 0.08 0.05 0.18 0.30 0.91 0.63 0.54 0.63 0.33 0.24 0.28 0.48 0.81 1.49 2.07
3.46 3.31 3.03 3.28 3.93 4.10 3.93 4.13 4.22 4.36 4.83 5.45 6.49 5.52 6.41 5.47 1.96 0.64 0.68 0.69 0.45 0.23 0.28 0.36 0.59 0.83 0.89 1.08 1.08 1.31 0.66 0.16 0.06 0.04 0.13 0.48 0.63 0.62 0.92 0.95 0.87 0.62 0.41 0.51 1.17 2.25 1.72
3.05 3.19 3.31 3.33 3.56 4.24 4.68 5.12 5.27 5.20 5.66 8.01 8.38 4.59 2.81 3.57 1.98 0.91 0.88 1.09 0.60 0.46 0.54 0.68 1.08 0.65 0.77 1.53 1.04 0.78 0.62 0.34 0.17 0.17 0.18 0.45 0.87 0.84 0.61 0.70 0.61 1.10 1.13 1.17 1.08 0.99 1.60
2.87 2.85 3.07 3.22 3.39 3.61 3.98 4.91 5.40 5.15 5.86 10.42 8.60 3.33 1.76 1.23 0.96 1.55 1.77 1.23 0.56 0.56 0.99 1.05 0.59 0.31 0.54 0.84 0.78 0.76 0.77 0.80 0.71 0.28 0.28 0.41 0.72 0.90 1.52 0.90 0.43 0.94 1.10 0.92 0.63 0.73 0.81
2.87 2.72 2.80 3.04 3.10 3.08 3.24 3.82 5.05 6.28 7.63 10.82 6.59 2.41 2.22 2.23 1.41 1.81 1.71 0.84 0.73 0.82 1.15 0.68 0.47 0.78 0.66 0.37 0.53 0.70 0.56 0.44 0.49 0.45 0.50 0.68 0.80 0.95 1.13 0.56 0.50 0.95 0.87 0.51 0.32 0.27 0.36
2.42 2.35 2.31 2.45 2.71 2.97 3.16 3.41 3.95 5.61 8.03 6.96 4.08 2.48 3.58 3.00 1.44 0.87 0.63 0.63 0.76 0.73 1.05 0.62 0.46 0.77 0.50 0.32 0.56 0.63 0.39 0.23 0.31 0.27 0.38 0.62 0.71 1.35 1.23 0.75 1.46 1.01 0.40 0.32 0.33 0.33 0.28
2.32 2.26 2.20 2.20 2.21 2.55 2.76 2.77 3.07 3.94 5.59 6.05 3.86 2.89 3.22 2.55 1.11 0.67 0.54 0.62 0.78 0.95 1.01 0.92 0.60 0.56 0.72 0.94 1.23 1.01 0.56 0.39 0.22 0.34 0.42 0.43 0.85 1.72 1.42 0.93 0.63 0.27 0.16 0.25 0.34 0.33 0.36
2.01 1.90 1.88 2.13 2.09 2.13 2.46 2.50 2.35 2.60 3.82 5.87 4.51 3.07 3.34 3.03 1.48 0.55 0.68 0.72 0.92 1.08 1.10 0.83 0.63 0.66 0.95 1.57 1.64 1.32 0.69 0.43 0.36 0.29 0.47 0.71 0.96 1.90 1.62 1.50 0.72 0.22 0.15 0.08 0.15 0.47 0.43
1.84 1.80 1.87 1.88 2.08 2.09 2.13 2.19 2.29 2.21 3.08 4.87 4.77 3.44 4.73 4.50 1.78 0.75 0.91 0.97 0.87 1.08 1.37 0.90 0.84 0.96 1.14 1.62 1.66 0.82 0.54 0.43 0.59 0.42 0.34 0.64 1.29 1.97 1.67 2.17 0.75 0.16 0.19 0.24 0.81 1.05 0.72
1.47 1.57 1.76 1.77 1.87 1.89 1.89 1.85 2.05 2.46 3.26 4.74 4.23 3.25 4.35 4.31 2.10 1.04 0.84 0.91 0.84 1.12 1.54 1.29 1.62 1.51 1.80 1.88 1.35 0.97 0.64 0.43 0.42 0.30 0.38 0.55 1.07 1.16 1.37 1.92 1.10 0.36 0.54 0.97 1.05 0.79 0.56
1.48 1.43 1.47 1.61 1.71 1.71 1.72 1.86 1.97 2.54 3.52 4.78 4.52 3.08 3.79 4.69 3.16 1.37 0.81 0.72 0.63 0.72 1.28 1.62 1.37 1.15 1.27 1.54 1.42 1.17 0.94 0.66 0.51 0.82 0.45 0.78 0.70 0.95 0.91 0.79 0.69 0.62 0.89 0.76 0.74 0.80 0.46

GFSGBSN_prec_precacc_234.txt.gz
Total_Precipitation_Accumulation
0.22 0.16 0.13 0.12 0.10 0.08 0.08 0.08 0.08 0.06 0.06 0.06 0.06 0.05 0.05 0.05 0.04 0.03 0.02 0.01 0.01 0.02 0.02 0.02 0.02 0.02 0.01 0.00 0.00 0.00 0.00 0.00 0.00 0.00 0.00 0.00 0.00 0.00 0.00 0.00 0.00 0.00 0.00 0.00 0.00 0.02 0.02
0.62 0.52 0.47 0.43 0.38 0.35 0.32 0.27 0.21 0.13 0.09 0.07 0.07 0.07 0.07 0.07 0.05 0.04 0.03 0.01 0.02 0.01 0.02 0.02 0.02 0.04 0.00 0.00 0.00 0.00 0.00 0.00 0.00 0.00 0.00 0.00 0.00 0.00 0.00 0.00 0.00 0.00 0.00 0.00 0.02 0.01 0.02
0.54 0.55 0.50 0.45 0.42 0.35 0.27 0.21 0.17 0.15 0.11 0.08 0.09 0.06 0.05 0.05 0.04 0.03 0.03 0.01 0.02 0.02 0.02 0.02 0.03 0.03 0.00 0.00 0.00 0.00 0.00 0.00 0.00 0.00 0.00 0.00 0.00 0.00 0.00 0.00 0.00 0.00 0.01 0.01 0.04 0.02 0.01
0.57 0.47 0.42 0.38 0.32 0.31 0.27 0.22 0.19 0.16 0.12 0.09 0.07 0.07 0.06 0.05 0.04 0.03 0.02 0.01 0.01 0.01 0.02 0.02 0.03 0.02 0.00 0.00 0.00 0.00 0.00 0.00 0.00 0.00 0.00 0.00 0.00 0.00 0.00 0.00 0.00 0.00 0.00 0.02 0.16 0.03 0.01
0.63 0.62 0.51 0.39 0.34 0.31 0.27 0.22 0.17 0.12 0.10 0.09 0.07 0.05 0.04 0.03 0.03 0.04 0.03 0.02 0.01 0.01 0.02 0.02 0.03 0.02 0.00 0.00 0.00 0.00 0.00 0.00 0.00 0.00 0.00 0.00 0.00 0.00 0.00 0.00 0.00 0.00 0.00 0.00 0.01 0.01 0.01
0.45 0.45 0.45 0.42 0.40 0.35 0.29 0.22 0.17 0.12 0.11 0.10 0.07 0.05 0.05 0.06 0.06 0.05 0.03 0.01 0.01 0.01 0.01 0.00 0.02 0.01 0.00 0.00 0.00 0.00 0.00 0.01 0.03 0.00 0.00 0.00 0.00 0.00 0.00 0.00 0.00 0.00 0.00 0.00 0.02 0.01 0.00
0.57 0.52 0.46 0.40 0.35 0.38 0.40 0.38 0.31 0.24 0.18 0.12 0.08 0.05 0.03 0.02 0.04 0.05 0.01 0.01 0.00 0.00 0.00 0.00 0.01 0.00 0.00 0.00 0.00 0.00 0.00 0.01 0.01 0.00 0.01 0.02 0.00 0.01 0.00 0.00 0.00 0.00 0.00 0.00 0.00 0.01 0.00
0.55 0.58 0.54 0.43 0.36 0.31 0.32 0.33 0.33 0.31 0.25 0.19 0.14 0.09 0.05 0.05 0.07 0.06 0.01 0.00 0.01 0.05 0.07 0.00 0.00 0.00 0.00 0.00 0.00 0.00 0.00 0.00 0.00 0.01 0.03 0.04 0.03 0.01 0.01 0.00 0.00 0.00 0.01 0.00 0.00 0.00 0.00
0.77 0.68 0.65 0.67 0.54 0.39 0.33 0.31 0.25 0.22 0.23 0.22 0.14 0.10 0.08 0.09 0.10 0.04 0.00 0.00 0.00 0.01 0.06 0.00 0.00 0.00 0.00 0.00 0.00 0.00 0.00 0.00 0.01 0.03 0.03 0.05 0.02 0.00 0.00 0.00 0.01 0.00 0.00 0.00 0.00 0.00 0.01
1.01 0.78 0.69 0.65 0.69 0.64 0.50 0.38 0.30 0.22 0.18 0.15 0.14 0.13 0.15 0.14 0.07 0.00 0.00 0.00 0.00 0.03 0.20 0.04 0.00 0.00 0.00 0.01 0.01 0.00 0.00 0.05 0.07 0.06 0.05 0.06 0.00 0.01 0.04 0.04 0.01 0.00 0.00 0.01 0.01 0.03 0.08
1.26 1.08 0.91 0.76 0.71 0.68 0.61 0.49 0.35 0.23 0.22 0.21 0.16 0.14 0.14 0.12 0.03 0.02 0.01 0.00 0.01 0.16 0.48 0.05 0.00 0.01 0.00 0.02 0.04 0.02 0.00 0.01 0.04 0.04 0.10 0.12 0.01 0.07 0.08 0.03 0.02 0.01 0.01 0.05 0.05 0.06 0.05
1.50 1.34 1.21 1.01 0.79 0.62 0.57 0.55 0.48 0.34 0.27 0.29 0.29 0.27 0.25 0.12 0.08 0.02 0.01 0.02 0.22 0.59 0.47 0.04 0.01 0.01 0.01 0.00 0.00 0.00 0.00 0.02 0.02 0.03 0.03 0.02 0.02 0.05 0.04 0.01 0.04 0.08 0.05 0.11 0.10 0.13 0.15
1.76 1.58 1.42 1.24 1.07 0.82 0.66 0.56 0.53 0.46 0.39 0.40 0.37 0.34 0.31 0.11 0.07 0.02 0.03 0.27 0.65 0.64 0.07 0.03 0.03 0.00 0.01 0.03 0.02 0.02 0.05 0.03 0.04 0.07 0.10 0.08 0.09 0.01 0.01 0.01 0.04 0.11 0.25 0.47 0.52 0.33 0.12
2.42 1.96 1.68 1.42 1.22 1.09 0.88 0.78 0.64 0.65 0.62 0.64 0.64 0.63 0.35 0.13 0.07 0.12 0.24 0.75 0.76 0.11 0.02 0.01 0.00 0.01 0.10 0.20 0.16 0.08 0.08 0.02 0.01 0.02 0.08 0.18 0.21 0.10 0.00 0.01 0.04 0.09 0.27 0.39 0.56 0.26 0.12
3.23 2.54 1.94 1.57 1.38 1.19 1.22 1.01 0.90 0.77 0.75 0.94 1.39 1.04 0.68 0.21 0.19 0.40 1.04 1.37 0.24 0.04 0.11 0.07 0.04 0.11 0.28 0.11 0.35 0.26 0.05 0.02 0.06 0.09 0.27 0.29 0.22 0.07 0.01 0.04 0.13 0.17 0.16 0.12 0.67 0.42 0.42
4.07 3.98 3.00 2.42 1.84 1.57 1.42 1.43 1.30 1.13 1.11 1.50 1.75 1.57 0.86 0.35 0.69 1.61 2.29 1.07 0.07 0.05 0.10 0.22 0.44 0.24 0.36 0.12 0.39 0.18 0.14 0.09 0.06 0.04 0.11 0.31 0.62 0.20 0.06 0.07 0.07 0.14 0.25 0.46 0.92 1.04 0.82
4.08 3.94 4.20 3.48 2.84 2.13 1.94 1.87 1.91 1.85 2.02 2.78 3.36 3.51 1.41 0.61 2.05 3.74 2.64 0.40 0.02 0.03 0.21 0.54 0.48 0.46 0.54 0.43 0.49 0.24 0.31 0.22 0.12 0.06 0.10 0.39 0.89 0.51 0.17 0.16 0.16 0.24 0.39 0.44 0.64 0.69 1.39
3.67 3.89 3.69 3.64 3.45 2.96 2.57 2.36 2.53 3.08 3.97 5.03 5.25 4.17 2.21 1.46 3.17 2.99 1.11 0.14 0.14 0.17 0.27 0.48 0.48 0.60 0.85 0.61 0.69 0.77 0.47 0.45 0.17 0.06 0.09 0.17 0.98 0.78 0.28 0.13 0.18 0.27 0.24 0.40 1.52 1.15 1.27
3.12 3.02 3.42 3.70 3.51 3.56 3.20 2.86 2.85 3.30 3.91 4.87 6.06 4.15 3.96 2.68 2.42 1.46 0.59 0.34 0.31 0.28 0.24 0.43 0.48 0.76 0.85 1.01 1.32 1.30 0.68 0.26 0.11 0.07 0.19 0.31 0.92 0.63 0.54 0.63 0.33 0.24 0.28 0.48 0.82 1.49 2.08
3.46 3.32 3.04 3.28 3.94 4.11 3.93 4.14 4.22 4.36 4.83 5.45 6.49 5.53 6.53 5.55 1.97 0.64 0.68 0.69 0.45 0.23 0.28 0.36 0.59 0.83 0.90 1.08 1.09 1.33 0.68 0.19 0.09 0.08 0.16 0.50 0.64 0.62 0.92 0.95 0.87 0.62 0.41 0.51 1.17 2.25 1.72
3.05 3.20 3.31 3.34 3.57 4.25 4.68 5.13 5.28 5.20 5.66 8.02 8.38 4.59 2.82 3.65 1.99 0.91 0.88 1.09 0.60 0.46 0.54 0.68 1.08 0.65 0.77 1.53 1.04 0.79 0.66 0.36 0.20 0.18 0.19 0.47 0.88 0.84 0.61 0.70 0.61 1.10 1.13 1.17 1.08 0.99 1.60
2.88 2.85 3.07 3.23 3.40 3.63 4.00 4.93 5.43 5.15 5.86 10.43 8.60 3.33 1.76 1.24 0.96 1.55 1.77 1.23 0.56 0.56 0.99 1.05 0.59 0.31 0.54 0.84 0.79 0.78 0.79 0.83 0.76 0.31 0.28 0.42 0.73 0.90 1.52 0.90 0.43 0.94 1.10 0.92 0.63 0.73 0.81
2.88 2.73 2.80 3.05 3.12 3.09 3.27 3.85 5.08 6.30 7.64 10.83 6.59 2.41 2.22 2.23 1.42 1.82 1.72 0.84 0.73 0.82 1.15 0.68 0.47 0.78 0.66 0.38 0.56 0.77 0.62 0.48 0.53 0.47 0.51 0.68 0.81 0.96 1.13 0.56 0.50 0.95 0.87 0.51 0.32 0.27 0.36
2.43 2.36 2.32 2.45 2.73 2.99 3.19 3.45 3.97 5.61 8.03 6.96 4.08 2.48 3.58 3.00 1.44 0.88 0.63 0.63 0.76 0.73 1.05 0.62 0.46 0.77 0.50 0.33 0.58 0.65 0.41 0.24 0.31 0.27 0.39 0.63 0.71 1.36 1.24 0.75 1.47 1.02 0.40 0.32 0.33 0.33 0.28
2.33 2.27 2.22 2.20 2.22 2.57 2.80 2.82 3.11 3.95 5.61 6.05 3.86 2.89 3.23 2.56 1.11 0.67 0.54 0.62 0.78 0.96 1.01 0.92 0.60 0.56 0.73 0.97 1.26 1.05 0.58 0.40 0.22 0.35 0.42 0.43 0.86 1.73 1.45 0.96 0.64 0.27 0.16 0.25 0.34 0.33 0.36
2.03 1.93 1.90 2.15 2.09 2.16 2.49 2.54 2.40 2.63 3.88 5.88 4.51 3.08 3.35 3.05 1.48 0.55 0.69 0.72 0.92 1.09 1.10 0.83 0.63 0.66 0.96 1.58 1.68 1.38 0.72 0.43 0.36 0.29 0.47 0.71 0.97 1.91 1.67 1.54 0.73 0.22 0.15 0.08 0.15 0.47 0.43
1.85 1.82 1.90 1.90 2.09 2.11 2.16 2.22 2.33 2.24 3.15 4.89 4.77 3.45 4.74 4.51 1.78 0.75 0.91 0.97 0.87 1.09 1.38 0.90 0.84 0.97 1.17 1.66 1.70 0.86 0.56 0.44 0.60 0.42 0.34 0.64 1.30 1.98 1.69 2.23 0.79 0.16 0.19 0.24 0.83 1.06 0.72
1.49 1.58 1.78 1.79 1.89 1.91 1.92 1.88 2.09 2.49 3.32 4.79 4.24 3.25 4.35 4.31 2.11 1.04 0.85 0.91 0.85 1.14 1.65 1.37 1.65 1.52 1.82 1.93 1.43 1.04 0.66 0.43 0.42 0.30 0.38 0.57 1.12 1.19 1.40 2.01 1.13 0.36 0.54 0.97 1.05 0.79 0.56
1.50 1.44 1.50 1.64 1.74 1.74 1.76 1.89 2.00 2.58 3.57 4.84 4.52 3.08 3.79 4.69 3.16 1.37 0.82 0.74 0.64 0.73 1.33 1.72 1.46 1.21 1.28 1.56 1.47 1.20 0.97 0.69 0.52 0.83 0.46 0.83 0.74 0.97 0.95 0.81 0.69 0.62 0.89 0.76 0.74 0.80 0.46

GFSGBSN_prec_precacc_237.txt.gz
Total_Precipitation_Accumulation
0.23 0.16 0.13 0.12 0.10 0.08 0.08 0.08 0.08 0.06 0.06 0.06 0.06 0.05 0.05 0.05 0.04 0.03 0.02 0.01 0.01 0.02 0.02 0.02 0.02 0.02 0.01 0.00 0.00 0.00 0.00 0.00 0.00 0.00 0.00 0.00 0.00 0.00 0.00 0.00 0.00 0.00 0.00 0.00 0.00 0.02 0.02
0.62 0.52 0.47 0.43 0.38 0.35 0.32 0.27 0.21 0.13 0.09 0.07 0.07 0.07 0.07 0.07 0.05 0.04 0.03 0.01 0.02 0.01 0.02 0.02 0.02 0.04 0.00 0.00 0.00 0.00 0.00 0.00 0.00 0.00 0.00 0.00 0.00 0.00 0.00 0.00 0.00 0.00 0.00 0.00 0.02 0.01 0.02
0.54 0.56 0.51 0.46 0.42 0.35 0.27 0.21 0.17 0.15 0.11 0.08 0.09 0.06 0.05 0.05 0.04 0.03 0.03 0.01 0.02 0.02 0.02 0.02 0.03 0.03 0.00 0.00 0.00 0.00 0.00 0.00 0.00 0.00 0.00 0.00 0.00 0.00 0.00 0.00 0.00 0.00 0.01 0.01 0.04 0.02 0.01
0.62 0.48 0.43 0.38 0.32 0.31 0.27 0.22 0.19 0.16 0.12 0.09 0.07 0.07 0.06 0.05 0.04 0.03 0.02 0.01 0.01 0.01 0.02 0.02 0.03 0.02 0.00 0.00 0.00 0.00 0.00 0.00 0.00 0.00 0.00 0.00 0.00 0.00 0.00 0.00 0.00 0.00 0.00 0.02 0.16 0.03 0.01
0.72 0.71 0.54 0.39 0.35 0.31 0.27 0.22 0.17 0.12 0.10 0.09 0.07 0.05 0.04 0.03 0.03 0.04 0.03 0.02 0.01 0.01 0.02 0.02 0.03 0.02 0.00 0.00 0.00 0.00 0.00 0.00 0.00 0.00 0.00 0.00 0.00 0.00 0.00 0.00 0.00 0.00 0.00 0.00 0.01 0.01 0.01
0.46 0.51 0.58 0.49 0.42 0.36 0.29 0.23 0.18 0.12 0.11 0.10 0.07 0.05 0.05 0.06 0.06 0.05 0.03 0.01 0.01 0.01 0.01 0.00 0.02 0.01 0.00 0.00 0.00 0.00 0.00 0.01 0.03 0.00 0.00 0.00 0.00 0.00 0.00 0.00 0.00 0.00 0.00 0.00 0.02 0.01 0.00
0.57 0.52 0.47 0.44 0.41 0.42 0.42 0.39 0.31 0.26 0.19 0.13 0.09 0.05 0.03 0.02 0.04 0.05 0.01 0.01 0.00 0.00 0.00 0.00 0.01 0.00 0.00 0.00 0.00 0.00 0.00 0.01 0.01 0.00 0.01 0.02 0.00 0.01 0.00 0.00 0.00 0.00 0.00 0.00 0.00 0.01 0.00
0.55 0.58 0.54 0.43 0.36 0.32 0.35 0.35 0.34 0.32 0.25 0.20 0.14 0.09 0.05 0.05 0.07 0.06 0.01 0.00 0.01 0.05 0.07 0.00 0.00 0.00 0.00 0.00 0.00 0.00 0.00 0.00 0.00 0.01 0.03 0.04 0.03 0.01 0.01 0.00 0.00 0.00 0.01 0.00 0.00 0.00 0.00
0.77 0.68 0.65 0.67 0.54 0.39 0.33 0.31 0.26 0.23 0.24 0.24 0.16 0.11 0.08 0.10 0.10 0.04 0.00 0.00 0.00 0.01 0.06 0.00 0.00 0.00 0.00 0.00 0.00 0.00 0.00 0.00 0.01 0.03 0.03 0.05 0.02 0.00 0.00 0.00 0.01 0.00 0.00 0.00 0.00 0.00 0.01
1.02 0.78 0.69 0.65 0.69 0.64 0.50 0.38 0.30 0.22 0.18 0.15 0.16 0.18 0.19 0.15 0.07 0.00 0.00 0.00 0.00 0.03 0.20 0.04 0.00 0.00 0.00 0.01 0.01 0.00 0.00 0.05 0.07 0.06 0.05 0.06 0.00 0.01 0.04 0.04 0.01 0.00 0.00 0.01 0.01 0.03 0.08
1.27 1.09 0.91 0.76 0.71 0.68 0.61 0.49 0.35 0.23 0.22 0.21 0.16 0.15 0.16 0.13 0.03 0.02 0.02 0.01 0.01 0.16 0.48 0.05 0.00 0.01 0.00 0.02 0.04 0.02 0.00 0.01 0.04 0.04 0.10 0.12 0.01 0.07 0.08 0.03 0.02 0.01 0.01 0.05 0.05 0.06 0.05
1.50 1.34 1.21 1.01 0.79 0.62 0.57 0.55 0.48 0.34 0.27 0.29 0.29 0.29 0.30 0.13 0.08 0.02 0.01 0.03 0.22 0.59 0.47 0.04 0.01 0.01 0.01 0.00 0.00 0.00 0.00 0.02 0.02 0.03 0.03 0.02 0.02 0.05 0.04 0.01 0.04 0.08 0.05 0.11 0.10 0.13 0.15
1.76 1.58 1.42 1.24 1.07 0.82 0.66 0.56 0.53 0.46 0.39 0.40 0.37 0.36 0.41 0.12 0.09 0.02 0.03 0.27 0.65 0.64 0.07 0.03 0.03 0.00 0.01 0.03 0.02 0.02 0.05 0.03 0.04 0.07 0.10 0.08 0.09 0.01 0.01 0.01 0.04 0.11 0.25 0.47 0.52 0.33 0.12
2.42 1.96 1.68 1.43 1.22 1.09 0.88 0.78 0.64 0.65 0.62 0.64 0.64 0.65 0.40 0.14 0.07 0.12 0.24 0.75 0.76 0.11 0.02 0.01 0.00 0.01 0.10 0.20 0.16 0.08 0.08 0.02 0.01 0.02 0.08 0.18 0.21 0.10 0.00 0.01 0.05 0.11 0.28 0.40 0.56 0.26 0.12
3.23 2.54 1.94 1.57 1.38 1.19 1.22 1.01 0.90 0.77 0.75 0.94 1.39 1.04 0.72 0.23 0.19 0.40 1.04 1.37 0.24 0.04 0.11 0.07 0.04 0.11 0.28 0.11 0.35 0.26 0.05 0.02 0.06 0.09 0.27 0.29 0.22 0.07 0.02 0.06 0.16 0.18 0.17 0.12 0.67 0.42 0.42
4.08 3.98 3.00 2.42 1.84 1.57 1.42 1.43 1.30 1.13 1.11 1.50 1.75 1.58 0.89 0.37 0.69 1.61 2.29 1.07 0.07 0.05 0.10 0.22 0.44 0.24 0.36 0.12 0.39 0.18 0.14 0.09 0.06 0.04 0.11 0.31 0.62 0.20 0.06 0.08 0.09 0.15 0.26 0.46 0.92 1.04 0.82
4.08 3.94 4.20 3.48 2.84 2.14 1.95 1.87 1.91 1.85 2.02 2.78 3.37 3.53 1.42 0.65 2.06 3.76 2.64 0.40 0.02 0.03 0.21 0.54 0.48 0.46 0.54 0.43 0.49 0.24 0.31 0.22 0.12 0.07 0.11 0.40 0.91 0.54 0.23 0.19 0.18 0.25 0.39 0.44 0.64 0.69 1.39
3.68 3.89 3.69 3.64 3.45 2.97 2.57 2.36 2.53 3.08 3.97 5.04 5.26 4.19 2.21 1.51 3.30 3.01 1.12 0.14 0.14 0.17 0.27 0.48 0.48 0.60 0.85 0.61 0.69 0.77 0.47 0.46 0.17 0.07 0.12 0.21 1.01 0.80 0.32 0.15 0.19 0.27 0.24 0.40 1.52 1.15 1.27
3.12 3.02 3.42 3.70 3.52 3.56 3.20 2.88 2.85 3.30 3.91 4.87 6.06 4.16 3.99 2.70 2.46 1.48 0.59 0.35 0.31 0.28 0.24 0.43 0.48 0.76 0.85 1.01 1.32 1.30 0.68 0.26 0.12 0.08 0.21 0.34 0.96 0.65 0.56 0.63 0.33 0.24 0.28 0.48 0.82 1.49 2.08
3.46 3.32 3.04 3.28 3.94 4.12 3.94 4.15 4.24 4.36 4.83 5.45 6.49 5.54 6.60 5.69 1.98 0.65 0.68 0.69 0.45 0.23 0.28 0.36 0.59 0.83 0.90 1.08 1.09 1.33 0.68 0.19 0.09 0.10 0.18 0.53 0.68 0.66 0.95 0.96 0.87 0.62 0.41 0.51 1.17 2.25 1.72
3.05 3.20 3.31 3.34 3.57 4.27 4.70 5.15 5.31 5.21 5.66 8.02 8.39 4.59 2.83 3.68 2.03 0.92 0.88 1.09 0.60 0.46 0.54 0.68 1.08 0.65 0.77 1.53 1.04 0.79 0.66 0.36 0.20 0.19 0.22 0.52 0.98 0.93 0.65 0.71 0.61 1.10 1.13 1.17 1.08 0.99 1.61
2.88 2.85 3.07 3.23 3.40 3.64 4.04 4.98 5.47 5.18 5.87 10.44 8.60 3.33 1.76 1.24 0.97 1.56 1.78 1.23 0.56 0.56 0.99 1.05 0.59 0.31 0.54 0.84 0.79 0.78 0.80 0.84 0.77 0.34 0.37 0.52 0.83 0.94 1.53 0.90 0.43 0.95 1.10 0.92 0.63 0.73 0.81
2.88 2.73 2.80 3.05 3.12 3.09 3.28 3.89 5.13 6.36 7.67 10.84 6.59 2.41 2.23 2.23 1.42 1.82 1.72 0.84 0.73 0.82 1.15 0.68 0.47 0.78 0.66 0.38 0.56 0.77 0.62 0.48 0.53 0.47 0.51 0.69 0.81 0.96 1.14 0.56 0.50 0.95 0.87 0.51 0.32 0.27 0.36
2.44 2.37 2.32 2.46 2.73 3.00 3.21 3.47 4.00 5.64 8.06 6.96 4.08 2.48 3.59 3.00 1.45 0.88 0.63 0.63 0.76 0.73 1.05 0.62 0.46 0.77 0.50 0.33 0.58 0.65 0.41 0.24 0.31 0.28 0.40 0.64 0.72 1.37 1.26 0.76 1.49 1.02 0.40 0.32 0.33 0.33 0.28
2.33 2.28 2.23 2.21 2.23 2.59 2.82 2.84 3.13 3.97 5.64 6.05 3.86 2.89 3.23 2.56 1.11 0.67 0.55 0.62 0.78 0.96 1.01 0.92 0.60 0.56 0.73 0.97 1.27 1.06 0.59 0.40 0.22 0.35 0.43 0.44 0.87 1.76 1.52 1.00 0.65 0.27 0.16 0.25 0.34 0.33 0.36
2.03 1.93 1.91 2.16 2.10 2.17 2.51 2.56 2.42 2.64 3.93 5.89 4.51 3.08 3.35 3.05 1.48 0.55 0.69 0.73 0.93 1.09 1.10 0.83 0.63 0.66 0.96 1.58 1.69 1.39 0.73 0.44 0.36 0.29 0.47 0.71 0.97 1.92 1.70 1.58 0.75 0.22 0.15 0.08 0.15 0.47 0.43
1.86 1.84 1.91 1.92 2.11 2.12 2.18 2.24 2.35 2.26 3.19 4.94 4.77 3.45 4.74 4.52 1.78 0.75 0.91 0.98 0.88 1.09 1.38 0.90 0.84 0.97 1.17 1.68 1.72 0.87 0.57 0.44 0.60 0.42 0.34 0.64 1.30 2.00 1.71 2.29 0.82 0.16 0.19 0.24 0.83 1.07 0.72
1.50 1.60 1.80 1.81 1.92 1.93 1.94 1.89 2.12 2.52 3.36 4.85 4.26 3.25 4.36 4.31 2.11 1.04 0.85 0.91 0.86 1.15 1.66 1.37 1.65 1.52 1.83 1.96 1.48 1.07 0.68 0.43 0.42 0.30 0.38 0.57 1.15 1.24 1.46 2.11 1.17 0.36 0.54 0.97 1.05 0.79 0.56
1.52 1.46 1.52 1.66 1.77 1.77 1.78 1.91 2.02 2.61 3.62 4.90 4.58 3.09 3.80 4.70 3.16 1.37 0.82 0.74 0.64 0.73 1.34 1.73 1.47 1.21 1.29 1.56 1.47 1.20 0.98 0.70 0.52 0.84 0.46 0.87 0.78 0.99 1.02 0.85 0.69 0.62 0.89 0.76 0.74 0.80 0.46

GFSGBSN_prec_precacc_243.txt.gz
Total_Precipitation_Accumulation
0.23 0.16 0.13 0.12 0.10 0.08 0.08 0.08 0.08 0.06 0.06 0.06 0.06 0.05 0.05 0.05 0.04 0.03 0.02 0.01 0.01 0.02 0.02 0.02 0.02 0.02 0.01 0.00 0.00 0.00 0.00 0.00 0.00 0.00 0.00 0.00 0.00 0.00 0.00 0.00 0.00 0.00 0.00 0.00 0.00 0.02 0.02
0.62 0.52 0.48 0.43 0.38 0.35 0.32 0.27 0.21 0.13 0.09 0.07 0.07 0.07 0.07 0.07 0.05 0.04 0.03 0.01 0.02 0.01 0.02 0.02 0.02 0.04 0.00 0.00 0.00 0.00 0.00 0.00 0.00 0.00 0.00 0.00 0.00 0.00 0.00 0.00 0.00 0.00 0.00 0.00 0.02 0.01 0.02
0.57 0.56 0.51 0.46 0.42 0.35 0.27 0.21 0.17 0.15 0.11 0.08 0.09 0.06 0.05 0.05 0.04 0.03 0.03 0.01 0.02 0.02 0.02 0.02 0.03 0.03 0.00 0.00 0.00 0.00 0.00 0.00 0.00 0.00 0.00 0.00 0.00 0.00 0.00 0.00 0.00 0.00 0.01 0.01 0.04 0.02 0.01
0.77 0.53 0.44 0.39 0.32 0.31 0.27 0.22 0.19 0.16 0.12 0.09 0.07 0.07 0.06 0.05 0.04 0.03 0.02 0.01 0.01 0.01 0.02 0.02 0.03 0.02 0.00 0.00 0.00 0.00 0.00 0.00 0.00 0.00 0.00 0.00 0.00 0.00 0.00 0.00 0.00 0.00 0.00 0.02 0.16 0.03 0.01
0.96 0.92 0.61 0.42 0.35 0.31 0.27 0.22 0.17 0.12 0.10 0.09 0.07 0.05 0.04 0.03 0.03 0.04 0.03 0.02 0.01 0.01 0.02 0.02 0.03 0.02 0.00 0.00 0.00 0.00 0.00 0.00 0.00 0.00 0.00 0.00 0.00 0.00 0.00 0.00 0.00 0.00 0.00 0.00 0.01 0.01 0.01
0.53 0.68 0.81 0.64 0.47 0.37 0.29 0.23 0.18 0.13 0.11 0.10 0.07 0.05 0.05 0.06 0.06 0.05 0.03 0.01 0.01 0.01 0.01 0.00 0.02 0.01 0.00 0.00 0.00 0.00 0.00 0.01 0.03 0.00 0.00 0.00 0.00 0.00 0.00 0.00 0.00 0.00 0.00 0.00 0.02 0.01 0.00
0.57 0.54 0.52 0.58 0.61 0.58 0.47 0.40 0.31 0.26 0.20 0.13 0.09 0.05 0.03 0.02 0.04 0.05 0.01 0.01 0.00 0.00 0.00 0.00 0.01 0.00 0.00 0.00 0.00 0.00 0.00 0.01 0.01 0.00 0.01 0.02 0.00 0.01 0.00 0.00 0.00 0.00 0.00 0.00 0.00 0.01 0.00
0.55 0.58 0.55 0.45 0.42 0.42 0.52 0.47 0.36 0.33 0.26 0.20 0.15 0.10 0.05 0.05 0.07 0.06 0.01 0.00 0.01 0.05 0.07 0.00 0.00 0.00 0.00 0.00 0.00 0.00 0.00 0.00 0.00 0.01 0.03 0.04 0.03 0.01 0.01 0.00 0.00 0.00 0.01 0.00 0.00 0.00 0.00
0.78 0.68 0.65 0.67 0.56 0.42 0.37 0.42 0.38 0.30 0.28 0.25 0.18 0.13 0.09 0.10 0.10 0.04 0.00 0.00 0.00 0.01 0.06 0.00 0.00 0.00 0.00 0.00 0.00 0.00 0.00 0.00 0.01 0.03 0.03 0.05 0.02 0.00 0.00 0.00 0.01 0.00 0.00 0.00 0.00 0.00 0.01
1.05 0.80 0.70 0.66 0.69 0.64 0.51 0.41 0.33 0.27 0.24 0.21 0.20 0.23 0.22 0.17 0.07 0.00 0.00 0.00 0.00 0.03 0.20 0.04 0.00 0.00 0.00 0.01 0.01 0.00 0.00 0.05 0.07 0.06 0.05 0.06 0.00 0.01 0.04 0.04 0.01 0.00 0.00 0.01 0.01 0.03 0.08
1.27 1.10 0.93 0.77 0.71 0.68 0.61 0.50 0.36 0.25 0.24 0.22 0.20 0.21 0.28 0.27 0.05 0.03 0.02 0.01 0.01 0.16 0.48 0.05 0.00 0.01 0.00 0.02 0.04 0.02 0.00 0.01 0.04 0.04 0.10 0.12 0.01 0.07 0.08 0.03 0.02 0.01 0.01 0.05 0.05 0.06 0.05
1.50 1.35 1.22 1.02 0.80 0.63 0.57 0.55 0.48 0.34 0.27 0.29 0.29 0.30 0.41 0.27 0.16 0.08 0.04 0.05 0.23 0.60 0.47 0.04 0.01 0.01 0.01 0.00 0.00 0.00 0.00 0.02 0.02 0.03 0.03 0.02 0.02 0.05 0.04 0.01 0.04 0.08 0.05 0.11 0.10 0.13 0.15
1.77 1.58 1.43 1.24 1.07 0.82 0.66 0.56 0.53 0.46 0.39 0.40 0.37 0.36 0.44 0.15 0.13 0.10 0.08 0.34 0.76 0.67 0.07 0.03 0.03 0.00 0.01 0.03 0.02 0.02 0.05 0.03 0.04 0.07 0.10 0.08 0.09 0.01 0.01 0.01 0.04 0.11 0.25 0.48 0.52 0.33 0.12
2.43 1.96 1.68 1.43 1.22 1.09 0.88 0.78 0.64 0.65 0.62 0.64 0.64 0.65 0.41 0.15 0.09 0.16 0.28 0.79 0.78 0.11 0.02 0.01 0.00 0.01 0.10 0.20 0.16 0.08 0.08 0.02 0.01 0.02 0.08 0.18 0.21 0.10 0.00 0.01 0.05 0.11 0.31 0.43 0.58 0.26 0.12
3.25 2.54 1.94 1.57 1.38 1.19 1.22 1.01 0.90 0.77 0.75 0.94 1.39 1.04 0.73 0.23 0.21 0.45 1.10 1.40 0.24 0.04 0.11 0.07 0.04 0.11 0.28 0.11 0.35 0.26 0.05 0.02 0.06 0.09 0.27 0.29 0.22 0.07 0.02 0.06 0.18 0.20 0.19 0.14 0.68 0.42 0.42
4.10 3.99 3.00 2.42 1.84 1.57 1.42 1.43 1.30 1.13 1.11 1.50 1.75 1.58 0.89 0.38 0.73 1.66 2.35 1.08 0.07 0.05 0.10 0.22 0.44 0.24 0.36 0.12 0.39 0.18 0.14 0.09 0.06 0.04 0.11 0.31 0.62 0.20 0.06 0.08 0.09 0.16 0.27 0.47 0.92 1.04 0.82
4.10 3.95 4.22 3.49 2.84 2.14 1.95 1.87 1.91 1.85 2.02 2.78 3.37 3.53 1.42 0.65 2.13 3.88 2.68 0.41 0.02 0.03 0.21 0.54 0.48 0.46 0.54 0.43 0.49 0.24 0.31 0.22 0.12 0.07 0.11 0.40 0.91 0.54 0.23 0.20 0.20 0.27 0.41 0.45 0.66 0.70 1.43
3.69 3.91 3.71 3.65 3.45 2.97 2.57 2.36 2.53 3.08 3.97 5.04 5.26 4.19 2.22 1.53 3.38 3.06 1.13 0.15 0.15 0.17 0.27 0.48 0.48 0.60 0.85 0.61 0.69 0.77 0.47 0.46 0.17 0.07 0.12 0.22 1.02 0.80 0.32 0.16 0.21 0.30 0.31 0.47 1.60 1.19 1.27
3.12 3.03 3.44 3.71 3.52 3.56 3.20 2.88 2.87 3.33 3.91 4.87 6.06 4.16 4.01 2.75 2.50 1.50 0.60 0.35 0.32 0.28 0.24 0.43 0.48 0.76 0.85 1.01 1.32 1.30 0.68 0.26 0.12 0.08 0.21 0.36 0.99 0.71 0.62 0.66 0.35 0.27 0.30 0.50 0.84 1.52 2.09
3.47 3.32 3.05 3.30 3.95 4.12 3.94 4.16 4.26 4.39 4.83 5.45 6.49 5.54 6.62 5.79 2.00 0.68 0.70 0.70 0.47 0.24 0.28 0.36 0.59 0.83 0.90 1.08 1.09 1.34 0.68 0.20 0.09 0.10 0.18 0.54 0.70 0.70 0.99 1.00 0.92 0.71 0.49 0.57 1.27 2.35 1.75
3.06 3.20 3.31 3.35 3.58 4.27 4.70 5.16 5.33 5.25 5.68 8.02 8.39 4.59 2.83 3.70 2.05 0.94 0.92 1.11 0.61 0.47 0.55 0.68 1.08 0.65 0.77 1.53 1.04 0.79 0.66 0.36 0.20 0.20 0.23 0.53 0.99 0.93 0.70 0.79 0.72 1.19 1.17 1.18 1.09 0.99 1.61
2.88 2.86 3.08 3.24 3.40 3.64 4.04 4.98 5.51 5.25 5.94 10.46 8.60 3.33 1.76 1.24 0.98 1.58 1.80 1.25 0.58 0.57 0.99 1.05 0.59 0.31 0.54 0.84 0.79 0.78 0.80 0.84 0.77 0.34 0.37 0.53 0.83 0.94 1.53 0.90 0.44 0.96 1.10 0.92 0.63 0.73 0.81
2.88 2.74 2.81 3.05 3.12 3.09 3.28 3.89 5.16 6.40 7.74 10.86 6.59 2.41 2.23 2.23 1.43 1.84 1.73 0.85 0.74 0.83 1.16 0.68 0.47 0.78 0.66 0.38 0.56 0.77 0.62 0.48 0.53 0.47 0.52 0.69 0.82 0.96 1.14 0.56 0.50 0.95 0.87 0.51 0.32 0.27 0.36
2.44 2.37 2.33 2.46 2.73 3.00 3.21 3.47 4.02 5.66 8.09 6.96 4.08 2.48 3.59 3.00 1.45 0.88 0.64 0.63 0.77 0.73 1.05 0.62 0.46 0.77 0.50 0.33 0.58 0.65 0.41 0.24 0.31 0.28 0.40 0.64 0.72 1.37 1.27 0.77 1.52 1.02 0.40 0.32 0.33 0.33 0.28
2.34 2.28 2.24 2.22 2.24 2.59 2.82 2.84 3.13 3.98 5.70 6.06 3.86 2.89 3.23 2.56 1.11 0.67 0.55 0.63 0.79 0.96 1.01 0.92 0.60 0.56 0.73 0.97 1.27 1.06 0.59 0.40 0.22 0.35 0.43 0.44 0.87 1.77 1.53 1.02 0.66 0.27 0.16 0.25 0.34 0.33 0.36
2.04 1.94 1.92 2.17 2.11 2.18 2.51 2.56 2.42 2.65 4.00 5.96 4.52 3.08 3.35 3.06 1.48 0.55 0.70 0.74 0.93 1.09 1.11 0.84 0.63 0.66 0.96 1.59 1.69 1.40 0.73 0.44 0.36 0.29 0.47 0.71 0.97 1.94 1.71 1.64 0.77 0.22 0.15 0.08 0.15 0.47 0.43
1.87 1.84 1.92 1.92 2.12 2.13 2.18 2.24 2.35 2.27 3.25 5.06 4.83 3.45 4.74 4.52 1.78 0.75 0.93 0.99 0.89 1.10 1.38 0.90 0.85 0.97 1.18 1.69 1.76 0.90 0.57 0.44 0.60 0.42 0.34 0.64 1.31 2.01 1.73 2.38 0.85 0.16 0.19 0.24 0.85 1.08 0.72
1.52 1.61 1.81 1.81 1.92 1.93 1.94 1.90 2.12 2.53 3.41 4.98 4.42 3.27 4.36 4.31 2.11 1.04 0.85 0.92 0.87 1.17 1.67 1.38 1.66 1.54 1.84 1.99 1.50 1.09 0.68 0.43 0.42 0.30 0.38 0.58 1.16 1.25 1.48 2.19 1.21 0.36 0.54 0.98 1.06 0.79 0.56
1.54 1.48 1.53 1.67 1.78 1.77 1.78 1.91 2.04 2.62 3.66 5.03 4.79 3.17 3.81 4.72 3.16 1.37 0.82 0.74 0.64 0.74 1.37 1.75 1.49 1.22 1.29 1.57 1.47 1.20 0.98 0.70 0.53 0.84 0.46 0.87 0.78 1.00 1.06 0.89 0.70 0.63 0.91 0.78 0.74 0.81 0.46

GFSGBSN_prec_precacc_246.txt.gz
Total_Precipitation_Accumulation
0.23 0.16 0.13 0.12 0.10 0.08 0.08 0.08 0.08 0.06 0.06 0.06 0.06 0.05 0.05 0.05 0.04 0.03 0.02 0.01 0.01 0.02 0.02 0.02 0.02 0.02 0.01 0.00 0.00 0.00 0.00 0.00 0.00 0.00 0.00 0.00 0.00 0.00 0.00 0.00 0.00 0.00 0.00 0.00 0.00 0.02 0.02
0.63 0.52 0.48 0.43 0.38 0.35 0.32 0.27 0.21 0.13 0.09 0.07 0.07 0.07 0.07 0.07 0.05 0.04 0.03 0.01 0.02 0.01 0.02 0.02 0.02 0.04 0.00 0.00 0.00 0.00 0.00 0.00 0.00 0.00 0.00 0.00 0.00 0.00 0.00 0.00 0.00 0.00 0.00 0.00 0.02 0.01 0.02
0.61 0.58 0.52 0.46 0.42 0.35 0.27 0.21 0.17 0.15 0.11 0.08 0.09 0.06 0.05 0.05 0.04 0.03 0.03 0.01 0.02 0.02 0.02 0.02 0.03 0.03 0.00 0.00 0.00 0.00 0.00 0.00 0.00 0.00 0.00 0.00 0.00 0.00 0.00 0.00 0.00 0.00 0.01 0.01 0.04 0.02 0.01
0.82 0.56 0.44 0.39 0.33 0.31 0.28 0.22 0.19 0.16 0.12 0.09 0.07 0.07 0.06 0.05 0.04 0.03 0.02 0.01 0.01 0.01 0.02 0.02 0.03 0.02 0.00 0.00 0.00 0.00 0.00 0.00 0.00 0.00 0.00 0.00 0.00 0.00 0.00 0.00 0.00 0.00 0.00 0.02 0.16 0.03 0.01
1.07 0.95 0.63 0.42 0.35 0.31 0.27 0.23 0.17 0.12 0.10 0.09 0.07 0.05 0.04 0.03 0.03 0.04 0.03 0.02 0.01 0.01 0.02 0.02 0.03 0.02 0.00 0.00 0.00 0.00 0.00 0.00 0.00 0.00 0.00 0.00 0.00 0.00 0.00 0.00 0.00 0.00 0.00 0.00 0.01 0.01 0.01
0.75 0.83 0.87 0.67 0.49 0.37 0.29 0.23 0.18 0.13 0.11 0.10 0.07 0.05 0.05 0.06 0.06 0.05 0.03 0.01 0.01 0.01 0.01 0.00 0.02 0.01 0.00 0.00 0.00 0.00 0.00 0.01 0.03 0.00 0.00 0.00 0.00 0.00 0.00 0.00 0.00 0.00 0.00 0.00 0.02 0.01 0.00
0.61 0.64 0.65 0.68 0.66 0.60 0.48 0.40 0.31 0.26 0.20 0.14 0.09 0.05 0.03 0.02 0.04 0.05 0.01 0.01 0.00 0.00 0.00 0.00 0.01 0.00 0.00 0.00 0.00 0.00 0.00 0.01 0.01 0.00 0.01 0.02 0.00 0.01 0.00 0.00 0.00 0.00 0.00 0.00 0.00 0.01 0.00
0.55 0.58 0.56 0.50 0.47 0.46 0.54 0.48 0.37 0.33 0.26 0.21 0.15 0.10 0.05 0.05 0.07 0.06 0.01 0.00 0.01 0.05 0.07 0.00 0.00 0.00 0.00 0.00 0.00 0.00 0.00 0.00 0.00 0.01 0.03 0.04 0.03 0.01 0.01 0.00 0.00 0.00 0.01 0.00 0.00 0.00 0.00
0.78 0.68 0.65 0.67 0.56 0.44 0.41 0.45 0.41 0.32 0.30 0.26 0.18 0.13 0.09 0.10 0.10 0.04 0.00 0.00 0.00 0.01 0.06 0.00 0.00 0.00 0.00 0.00 0.00 0.00 0.00 0.00 0.01 0.03 0.03 0.05 0.02 0.00 0.00 0.00 0.01 0.00 0.00 0.00 0.00 0.00 0.01
1.05 0.81 0.70 0.66 0.69 0.64 0.52 0.43 0.34 0.28 0.25 0.23 0.23 0.24 0.23 0.17 0.07 0.00 0.00 0.00 0.00 0.03 0.20 0.04 0.00 0.00 0.00 0.01 0.01 0.00 0.00 0.05 0.07 0.06 0.05 0.06 0.00 0.01 0.04 0.04 0.01 0.00 0.00 0.01 0.01 0.03 0.08
1.27 1.10 0.93 0.77 0.71 0.68 0.61 0.51 0.36 0.26 0.24 0.22 0.21 0.23 0.30 0.30 0.06 0.03 0.02 0.01 0.01 0.16 0.48 0.05 0.00 0.01 0.00 0.02 0.04 0.02 0.00 0.01 0.04 0.04 0.10 0.12 0.01 0.07 0.08 0.03 0.02 0.01 0.01 0.05 0.05 0.06 0.05
1.50 1.35 1.22 1.02 0.80 0.63 0.57 0.55 0.48 0.35 0.28 0.31 0.30 0.30 0.42 0.31 0.20 0.10 0.04 0.05 0.23 0.60 0.47 0.04 0.01 0.01 0.01 0.00 0.00 0.00 0.00 0.02 0.02 0.03 0.03 0.02 0.02 0.05 0.04 0.01 0.04 0.08 0.05 0.11 0.10 0.13 0.15
1.77 1.58 1.43 1.24 1.07 0.82 0.66 0.56 0.53 0.46 0.39 0.40 0.38 0.37 0.44 0.17 0.15 0.13 0.14 0.36 0.76 0.67 0.07 0.03 0.03 0.00 0.01 0.03 0.02 0.02 0.05 0.03 0.04 0.07 0.10 0.08 0.09 0.01 0.01 0.01 0.04 0.11 0.25 0.48 0.52 0.33 0.12
2.44 1.97 1.68 1.43 1.22 1.09 0.88 0.78 0.64 0.65 0.62 0.64 0.64 0.65 0.41 0.16 0.10 0.18 0.35 0.89 0.79 0.11 0.02 0.01 0.00 0.01 0.10 0.20 0.16 0.08 0.08 0.02 0.01 0.02 0.08 0.18 0.21 0.10 0.00 0.01 0.05 0.11 0.31 0.43 0.58 0.26 0.12
3.26 2.56 1.95 1.57 1.38 1.19 1.22 1.01 0.90 0.77 0.75 0.94 1.39 1.04 0.73 0.23 0.22 0.45 1.17 1.53 0.26 0.04 0.11 0.07 0.04 0.11 0.28 0.11 0.35 0.26 0.05 0.02 0.06 0.09 0.27 0.29 0.22 0.07 0.02 0.06 0.18 0.20 0.19 0.14 0.69 0.43 0.42
4.10 4.00 3.01 2.42 1.84 1.57 1.42 1.43 1.30 1.13 1.11 1.50 1.75 1.58 0.89 0.38 0.74 1.68 2.39 1.11 0.07 0.05 0.10 0.22 0.44 0.24 0.36 0.12 0.39 0.18 0.14 0.09 0.06 0.04 0.11 0.31 0.62 0.20 0.06 0.08 0.09 0.16 0.27 0.47 0.93 1.05 0.82
4.11 3.96 4.22 3.49 2.84 2.14 1.95 1.87 1.91 1.85 2.02 2.78 3.37 3.53 1.42 0.65 2.16 3.94 2.71 0.42 0.02 0.03 0.21 0.54 0.48 0.46 0.54 0.43 0.49 0.24 0.31 0.22 0.12 0.07 0.11 0.40 0.91 0.54 0.23 0.20 0.20 0.27 0.41 0.45 0.68 0.74 1.49
3.69 3.91 3.71 3.65 3.46 2.97 2.57 2.36 2.54 3.09 3.97 5.04 5.26 4.19 2.22 1.54 3.40 3.08 1.15 0.15 0.15 0.17 0.27 0.48 0.48 0.60 0.85 0.61 0.69 0.77 0.47 0.46 0.17 0.07 0.12 0.22 1.02 0.81 0.32 0.16 0.21 0.30 0.31 0.49 1.68 1.24 1.30
3.12 3.03 3.44 3.71 3.53 3.56 3.20 2.88 2.88 3.34 3.92 4.87 6.06 4.16 4.02 2.78 2.50 1.51 0.61 0.36 0.32 0.28 0.24 0.43 0.48 0.76 0.85 1.01 1.32 1.30 0.68 0.26 0.12 0.08 0.22 0.36 1.01 0.73 0.63 0.66 0.35 0.27 0.30 0.50 0.84 1.52 2.10
3.47 3.33 3.05 3.30 3.95 4.12 3.94 4.16 4.26 4.41 4.83 5.45 6.49 5.54 6.63 5.83 2.00 0.68 0.71 0.71 0.48 0.24 0.28 0.36 0.59 0.83 0.90 1.08 1.09 1.34 0.69 0.20 0.09 0.10 0.18 0.54 0.71 0.71 1.00 1.00 0.92 0.71 0.49 0.57 1.27 2.36 1.75
3.06 3.21 3.32 3.36 3.59 4.28 4.70 5.16 5.33 5.26 5.69 8.02 8.39 4.59 2.83 3.71 2.06 0.94 0.92 1.11 0.61 0.47 0.55 0.68 1.08 0.65 0.77 1.53 1.04 0.79 0.66 0.37 0.21 0.20 0.23 0.54 0.99 0.93 0.70 0.79 0.72 1.19 1.17 1.18 1.09 0.99 1.62
2.88 2.86 3.08 3.24 3.41 3.66 4.05 4.99 5.51 5.25 5.97 10.48 8.61 3.33 1.76 1.24 0.98 1.58 1.80 1.26 0.58 0.57 0.99 1.05 0.59 0.31 0.54 0.84 0.79 0.78 0.80 0.84 0.77 0.34 0.37 0.53 0.83 0.94 1.53 0.90 0.44 0.96 1.10 0.92 0.63 0.73 0.81
2.88 2.74 2.81 3.05 3.12 3.09 3.29 3.89 5.16 6.40 7.78 10.90 6.60 2.41 2.23 2.23 1.43 1.85 1.73 0.85 0.74 0.83 1.16 0.68 0.47 0.78 0.66 0.38 0.56 0.77 0.62 0.48 0.53 0.47 0.52 0.69 0.82 0.96 1.14 0.56 0.50 0.95 0.87 0.51 0.32 0.27 0.36
2.44 2.37 2.33 2.46 2.73 3.00 3.21 3.48 4.02 5.67 8.10 6.97 4.08 2.48 3.59 3.00 1.45 0.89 0.64 0.63 0.77 0.73 1.06 0.62 0.46 0.77 0.50 0.33 0.58 0.65 0.41 0.24 0.31 0.28 0.40 0.64 0.72 1.37 1.27 0.77 1.52 1.02 0.40 0.32 0.33 0.33 0.28
2.34 2.28 2.24 2.22 2.24 2.59 2.82 2.84 3.13 3.98 5.72 6.08 3.86 2.89 3.23 2.56 1.11 0.67 0.56 0.64 0.79 0.97 1.03 0.92 0.60 0.56 0.74 0.97 1.27 1.06 0.59 0.41 0.22 0.35 0.43 0.44 0.87 1.78 1.54 1.02 0.66 0.27 0.16 0.25 0.34 0.33 0.36
2.04 1.94 1.92 2.17 2.11 2.18 2.51 2.56 2.42 2.65 4.02 6.00 4.52 3.08 3.35 3.06 1.48 0.55 0.71 0.74 0.94 1.10 1.11 0.84 0.63 0.66 0.97 1.60 1.71 1.41 0.73 0.44 0.36 0.29 0.47 0.71 0.97 1.95 1.72 1.66 0.77 0.22 0.15 0.08 0.15 0.47 0.43
1.87 1.84 1.92 1.92 2.12 2.13 2.18 2.24 2.35 2.27 3.25 5.10 4.85 3.45 4.74 4.52 1.78 0.76 0.93 1.00 0.89 1.12 1.39 0.90 0.85 0.98 1.19 1.72 1.79 0.91 0.57 0.44 0.60 0.42 0.34 0.64 1.31 2.02 1.74 2.40 0.86 0.16 0.19 0.24 0.86 1.09 0.72
1.52 1.61 1.81 1.81 1.92 1.93 1.94 1.90 2.12 2.53 3.42 5.01 4.46 3.28 4.36 4.31 2.11 1.04 0.85 0.93 0.88 1.18 1.67 1.38 1.67 1.55 1.85 2.01 1.52 1.09 0.68 0.44 0.42 0.30 0.38 0.58 1.16 1.25 1.48 2.20 1.21 0.36 0.54 0.98 1.06 0.79 0.56
1.54 1.48 1.53 1.67 1.78 1.77 1.78 1.91 2.04 2.63 3.67 5.07 4.83 3.19 3.82 4.73 3.17 1.37 0.82 0.74 0.64 0.75 1.38 1.76 1.50 1.22 1.30 1.58 1.48 1.21 0.99 0.71 0.53 0.84 0.46 0.87 0.78 1.00 1.06 0.89 0.70 0.63 0.91 0.78 0.74 0.81 0.46